TimeCST,TemperatureF,Dew PointF,Humidity,Sea Level PressureIn,VisibilityMPH,Wind Direction,Wind SpeedMPH,Gust SpeedMPH,PrecipitationIn,Events,Conditions,WindDirDegrees,DateUTC
12:51 AM,48.0,45.0,89,29.69,6.0,South,5.8,-,N/A,,Mostly Cloudy,180,2013-12-03 06:51:00
1:51 AM,48.0,45.0,89,29.68,6.0,SSE,4.6,-,N/A,,Overcast,150,2013-12-03 07:51:00
2:51 AM,46.9,44.1,90,29.68,5.0,SE,4.6,-,N/A,,Mostly Cloudy,130,2013-12-03 08:51:00
3:47 AM,48.2,46.4,93,29.66,5.0,South,4.6,-,N/A,,Mostly Cloudy,170,2013-12-03 09:47:00
3:51 AM,48.9,46.0,90,29.66,4.0,South,6.9,-,N/A,,Mostly Cloudy,170,2013-12-03 09:51:00
4:13 AM,48.2,46.4,93,29.66,3.0,South,10.4,-,N/A,,Mostly Cloudy,190,2013-12-03 10:13:00
4:20 AM,50.0,46.4,87,29.65,3.0,South,11.5,-,N/A,,Overcast,190,2013-12-03 10:20:00
4:51 AM,50.0,46.9,89,29.65,3.0,South,9.2,-,N/A,,Mostly Cloudy,190,2013-12-03 10:51:00
5:51 AM,50.0,46.9,89,29.68,4.0,SSW,6.9,-,N/A,,Overcast,200,2013-12-03 11:51:00
6:34 AM,50.0,48.2,94,29.69,4.0,Calm,Calm,-,N/A,,Overcast,0,2013-12-03 12:34:00
6:51 AM,50.0,46.9,89,29.71,4.0,SW,8.1,-,N/A,,Overcast,220,2013-12-03 12:51:00
7:51 AM,51.1,48.0,89,29.70,4.0,South,4.6,-,N/A,,Overcast,170,2013-12-03 13:51:00
8:51 AM,52.0,48.0,86,29.71,4.0,South,6.9,-,N/A,,Overcast,170,2013-12-03 14:51:00
9:10 AM,53.6,48.2,82,29.70,5.0,South,8.1,-,N/A,,Haze,170,2013-12-03 15:10:00
9:51 AM,54.0,48.9,83,29.71,6.0,South,11.5,-,N/A,,Haze,190,2013-12-03 15:51:00
10:51 AM,55.0,48.9,80,29.70,5.0,South,12.7,-,N/A,,Haze,170,2013-12-03 16:51:00
11:39 AM,55.4,48.2,77,29.68,5.0,South,10.4,-,N/A,,Haze,170,2013-12-03 17:39:00
11:51 AM,55.9,48.9,77,29.68,6.0,South,9.2,-,N/A,,Haze,170,2013-12-03 17:51:00
12:07 PM,55.4,48.2,77,29.68,6.0,South,10.4,-,N/A,,Haze,190,2013-12-03 18:07:00
12:51 PM,57.9,48.9,72,29.68,7.0,SSE,6.9,-,N/A,,Overcast,160,2013-12-03 18:51:00
12:58 PM,57.2,48.2,72,29.67,7.0,South,9.2,-,N/A,,Overcast,170,2013-12-03 18:58:00
1:23 PM,59.0,48.2,67,29.66,7.0,South,10.4,-,N/A,,Overcast,170,2013-12-03 19:23:00
1:51 PM,59.0,50.0,72,29.66,8.0,South,12.7,-,N/A,,Mostly Cloudy,170,2013-12-03 19:51:00
2:51 PM,60.1,50.0,69,29.65,9.0,SSE,12.7,-,N/A,,Scattered Clouds,150,2013-12-03 20:51:00
3:51 PM,59.0,48.9,69,29.62,9.0,SSE,16.1,-,N/A,,Mostly Cloudy,150,2013-12-03 21:51:00
4:51 PM,57.0,48.0,72,29.64,8.0,SSE,12.7,-,N/A,,Mostly Cloudy,160,2013-12-03 22:51:00
5:51 PM,55.9,46.9,72,29.65,7.0,South,9.2,-,N/A,,Mostly Cloudy,170,2013-12-03 23:51:00
6:51 PM,54.0,48.9,83,29.68,7.0,SSE,8.1,-,N/A,,Mostly Cloudy,160,2013-12-04 00:51:00
7:51 PM,53.1,48.0,83,29.69,6.0,SSE,4.6,-,N/A,,Haze,150,2013-12-04 01:51:00
8:51 PM,53.1,48.0,83,29.68,5.0,SSE,8.1,-,N/A,,Haze,160,2013-12-04 02:51:00
9:51 PM,52.0,48.0,86,29.68,5.0,SSE,9.2,-,N/A,,Mostly Cloudy,160,2013-12-04 03:51:00
10:45 PM,48.2,46.4,93,29.67,3.0,ESE,8.1,-,N/A,,Mostly Cloudy,120,2013-12-04 04:45:00
10:51 PM,48.9,46.0,90,29.67,3.0,ESE,8.1,-,N/A,,Mostly Cloudy,110,2013-12-04 04:51:00
11:51 PM,52.0,48.0,86,29.70,3.0,South,8.1,-,N/A,,Scattered Clouds,180,2013-12-04 05:51:00